Retour au catalogue

COSMOS 2602

ActifMilitairePO
NORAD 67676·PAYLOAD·🇷🇺 Russia

Lancé Feb 5, 2026 depuis Plesetsk Cosmodrome

Loading…

Prochains Passages (prochaines 24 heures)

TLE

FraisSource: Space-Track

Époque: Sep 13, 2026, 17:04 UTC

1 67676U 26023C   26256.71123598  .00005111  00000-0  19921-3 0  9995
2 67676  96.6188 308.2552 0017266 164.6059 195.5711 15.26186003 33502

Suivez COSMOS 2602 en temps réel avec AllMySat

Download on the App Store